TimeHST,TemperatureF,Dew PointF,Humidity,Sea Level PressureIn,VisibilityMPH,Wind Direction,Wind SpeedMPH,Gust SpeedMPH,PrecipitationIn,Events,Conditions,WindDirDegrees,DateUTC
12:53 AM,73.0,55.0,53,29.95,10.0,North,11.5,-,N/A,,Clear,10,2011-12-06 10:53:00
1:53 AM,70.0,55.0,59,29.94,10.0,Calm,Calm,-,N/A,,Clear,0,2011-12-06 11:53:00
2:53 AM,70.0,55.0,59,29.92,10.0,ESE,3.5,-,N/A,,Clear,110,2011-12-06 12:53:00
3:53 AM,69.1,55.0,61,29.92,10.0,NNE,4.6,-,N/A,,Clear,30,2011-12-06 13:53:00
4:53 AM,68.0,55.9,65,29.94,10.0,ENE,4.6,-,N/A,,Clear,70,2011-12-06 14:53:00
5:53 AM,69.1,59.0,70,29.95,10.0,ENE,5.8,-,N/A,,Clear,70,2011-12-06 15:53:00
6:53 AM,68.0,59.0,73,29.97,10.0,ENE,3.5,-,N/A,,Clear,60,2011-12-06 16:53:00
7:53 AM,73.0,59.0,61,29.99,10.0,ENE,3.5,-,N/A,,Clear,60,2011-12-06 17:53:00
8:53 AM,78.1,61.0,56,29.99,10.0,North,3.5,-,N/A,,Clear,350,2011-12-06 18:53:00
9:53 AM,79.0,57.0,47,29.98,10.0,NW,6.9,-,N/A,,Clear,310,2011-12-06 19:53:00
10:53 AM,80.1,57.9,47,29.96,10.0,WNW,9.2,-,N/A,,Clear,290,2011-12-06 20:53:00
11:53 AM,81.0,61.0,50,29.94,10.0,NW,11.5,-,N/A,,Clear,310,2011-12-06 21:53:00
12:53 PM,81.0,62.1,52,29.92,10.0,West,8.1,-,N/A,,Clear,280,2011-12-06 22:53:00
1:53 PM,81.0,59.0,47,29.89,10.0,WSW,6.9,-,N/A,,Clear,240,2011-12-06 23:53:00
2:53 PM,79.0,62.1,56,29.89,10.0,South,9.2,-,N/A,,Clear,180,2011-12-07 00:53:00
3:53 PM,79.0,62.1,56,29.90,10.0,South,11.5,-,N/A,,Clear,170,2011-12-07 01:53:00
4:53 PM,78.1,63.0,60,29.91,10.0,South,8.1,-,N/A,,Clear,180,2011-12-07 02:53:00
5:53 PM,77.0,64.0,64,29.93,10.0,South,3.5,-,N/A,,Clear,190,2011-12-07 03:53:00
6:53 PM,75.9,64.0,67,29.95,10.0,ESE,5.8,-,N/A,,Scattered Clouds,110,2011-12-07 04:53:00
7:53 PM,75.0,61.0,62,29.96,10.0,Calm,Calm,-,N/A,,Partly Cloudy,0,2011-12-07 05:53:00
8:53 PM,73.9,60.1,62,29.97,10.0,East,6.9,-,N/A,,Clear,90,2011-12-07 06:53:00
9:53 PM,73.9,62.1,66,29.97,10.0,NNE,10.4,-,N/A,,Clear,20,2011-12-07 07:53:00
10:53 PM,73.0,61.0,66,29.96,10.0,Calm,Calm,-,N/A,,Clear,0,2011-12-07 08:53:00
11:53 PM,72.0,61.0,68,29.96,10.0,NNE,3.5,-,N/A,,Clear,20,2011-12-07 09:53:00